This is the latest recevied weather packets stored in our database for station/object SR2GKG-13. If no packets are shown the sender has not sent any weather packets the latest 10 day(s).
| Time | Temp. | Humidity | Pressure | Rain* | Wind** | Luminosity | Snow |
|---|---|---|---|---|---|---|---|
| 1777878557 | 23.33° C | 34% | 999.5 hPa | - | - | - | - |
| 1777877657 | 22.78° C | 35% | 999.5 hPa | - | - | - | - |
| 1777876757 | 21.11° C | 38% | 999.6 hPa | - | - | - | - |
| 1777875857 | 21.11° C | 38% | 999.5 hPa | - | - | - | - |
| 1777874957 | 21.11° C | 38% | 999.4 hPa | - | - | - | - |
| 1777874057 | 22.78° C | 34% | 999.2 hPa | - | - | - | - |
| 1777873157 | 19.44° C | 42% | 999.3 hPa | - | - | - | - |
| 1777872257 | 17.22° C | 46% | 999.3 hPa | - | - | - | - |
| 1777871356 | 16.11° C | 49% | 999.1 hPa | - | - | - | - |
| 1777870456 | 14.44° C | 52% | 999.3 hPa | - | - | - | - |
| 1777869556 | 14.44° C | 53% | 999.1 hPa | - | - | - | - |
| 1777868656 | 13.89° C | 54% | 999.1 hPa | - | - | - | - |
| 1777867756 | 13.89° C | 54% | 999 hPa | - | - | - | - |
| 1777866856 | 13.33° C | 54% | 999 hPa | - | - | - | - |
| 1777865956 | 13.33° C | 54% | 999.1 hPa | - | - | - | - |
| 1777865056 | 13.33° C | 54% | 999.1 hPa | - | - | - | - |
| 1777864156 | 13.33° C | 53% | 999.1 hPa | - | - | - | - |
| 1777863256 | 13.89° C | 52% | 999.1 hPa | - | - | - | - |
| 1777862355 | 13.89° C | 51% | 999.2 hPa | - | - | - | - |
| 1777861455 | 14.44° C | 50% | 999.1 hPa | - | - | - | - |
| 1777860555 | 14.44° C | 50% | 999.1 hPa | - | - | - | - |
| 1777859655 | 14.44° C | 49% | 999.1 hPa | - | - | - | - |
| 1777858755 | 14.44° C | 49% | 999.1 hPa | - | - | - | - |
| 1777857855 | 14.44° C | 48% | 999.3 hPa | - | - | - | - |
| 1777856955 | 14.44° C | 47% | 999.3 hPa | - | - | - | - |
* Rain since midnight (hover to see other rain measurements)
** Current wind speed in m/s (hover to see current wind gust speed)